Location: Azul
(36.7830°S, 59.8500°W)
Time: 06:00:05
(UTC-03:00)

ISS - Pass Details

Date: 25 May 2020
Orbit: 417 x 419 km, 51.6° (Epoch: 31 May)

Event Time Altitude Azimuth Distance (km) Brightness Sun altitude
Exits shadow 07:10:04 14° 245° (WSW) 1,290 -2.0 -9.8°
Maximum altitude 07:11:48 20° 208° (SSW) 1,068 -2.1 -9.5°
Drops below altitude 10° 07:14:23 10° 159° (SSE) 1,528 -0.9 -9.0°
Sets 07:16:54 0° 141° (SE) 2,397 0.4 -8.5°
